STARLINK-32654 (62322 NORAD) Tracking and Keplerian Element Data

This shows tracking and keplerian element data for the satellite.

Feedback or suggestion? Click here.




ElementValue
Catalog62322
NameSTARLINK-32654
Epoch Orbit832
Epoch Day35.25001157
Epoch Year2025
RAAN248.4868
Inclination53.1566
Eccentricity0.0001352
Argument of Perigee79.293
Mean Anonmoly30.4804
Mean Motion15.39521887
Decay Rate0.00124162
L11 62322U 24239X 25035.25001157 .00124162 00000+0 30736-2 0 9997
L22 62322 53.1566 248.4868 0001352 79.2930 30.4804 15.39521887 8325



Live tracking and technical data element details for STARLINK-32654 (NORAD 62322). STARLINK-32654 can be tracked NOW for your location showing map with azimuth and elevation plus other details from your city location.







IsCatalogInMostPopularTable: catalog: 62322, numindb: 23
Update: records affected: 1



GetName: 62322 STARLINK-32654

Hit Count: updated at: Sat, 24 May 2025 15:54:55 GMT